Time,TemperatureF,DewpointF,PressureIn,WindDirection,WindDirectionDegrees,WindSpeedMPH,WindSpeedGustMPH,Humidity,HourlyPrecipIn,Conditions,Clouds,dailyrainin,SoftwareType,DateUTC
2013-12-10 00:12:00,24.0,17.0,30.12,SSW,197,6.0,12.0,75,0.00,,,0.03,,2013-12-10 05:12:00,
2013-12-10 00:22:00,24.0,18.0,30.13,West,267,3.0,10.0,76,0.00,,,0.03,,2013-12-10 05:22:00,
2013-12-10 00:42:00,24.0,17.0,30.12,SW,229,3.0,9.0,75,0.00,,,0.03,,2013-12-10 05:42:00,
2013-12-10 00:53:00,24.0,17.0,30.12,WNW,286,4.0,13.0,73,0.00,,,0.03,,2013-12-10 05:53:00,
2013-12-10 01:12:00,24.0,16.0,30.11,SW,226,3.0,10.0,72,0.00,,,0.03,,2013-12-10 06:12:00,
2013-12-10 01:22:00,24.0,16.0,30.11,WSW,244,4.0,9.0,72,0.00,,,0.03,,2013-12-10 06:22:00,
2013-12-10 01:42:00,23.0,15.0,30.11,WSW,243,3.0,12.0,71,0.00,,,0.03,,2013-12-10 06:42:00,
2013-12-10 01:53:00,23.0,15.0,30.11,SW,234,6.0,12.0,72,0.00,,,0.03,,2013-12-10 06:53:00,
2013-12-10 02:22:00,23.0,14.0,30.12,SW,233,6.0,12.0,67,0.00,,,0.03,,2013-12-10 07:22:00,
2013-12-10 02:42:00,23.0,14.0,30.14,SW,221,2.0,8.0,69,0.00,,,0.03,,2013-12-10 07:42:00,
2013-12-10 02:52:00,23.0,15.0,30.14,WSW,238,4.0,12.0,70,0.00,,,0.03,,2013-12-10 07:52:00,
2013-12-10 03:12:00,22.0,13.0,30.14,WSW,254,4.0,10.0,68,0.00,,,0.03,,2013-12-10 08:12:00,
2013-12-10 03:22:00,22.0,14.0,30.14,South,186,1.0,8.0,70,0.00,,,0.03,,2013-12-10 08:22:00,
2013-12-10 03:42:00,22.0,14.0,30.14,SSW,203,2.0,10.0,72,0.00,,,0.03,,2013-12-10 08:42:00,
2013-12-10 03:52:00,22.0,15.0,30.13,WSW,256,3.0,11.0,73,0.00,,,0.03,,2013-12-10 08:52:00,
2013-12-10 04:11:00,22.0,15.0,30.12,WSW,238,5.0,8.0,74,0.00,,,0.03,,2013-12-10 09:11:00,
2013-12-10 04:22:00,22.0,15.0,30.11,West,261,4.0,10.0,74,0.00,,,0.03,,2013-12-10 09:22:00,
2013-12-10 04:44:00,22.0,14.0,30.11,WSW,257,4.0,10.0,72,0.00,,,0.03,,2013-12-10 09:44:00,
2013-12-10 04:54:00,22.0,14.0,30.10,West,262,4.0,9.0,70,0.00,,,0.03,,2013-12-10 09:54:00,
2013-12-10 05:22:00,21.0,13.0,30.10,WNW,288,6.0,11.0,71,0.00,,,0.03,,2013-12-10 10:22:00,
2013-12-10 05:43:00,21.0,13.0,30.09,WNW,290,3.0,7.0,72,0.00,,,0.03,,2013-12-10 10:43:00,
2013-12-10 05:53:00,21.0,14.0,30.09,West,271,3.0,6.0,73,0.00,,,0.03,,2013-12-10 10:53:00,
2013-12-10 06:12:00,21.0,14.0,30.09,West,275,1.0,7.0,74,0.00,,,0.03,,2013-12-10 11:12:00,
2013-12-10 06:23:00,21.0,14.0,30.09,WSW,245,2.0,8.0,74,0.00,,,0.03,,2013-12-10 11:23:00,
2013-12-10 06:43:00,21.0,14.0,30.09,SSW,209,2.0,9.0,75,0.00,,,0.03,,2013-12-10 11:43:00,
2013-12-10 06:53:00,21.0,14.0,30.09,WSW,247,2.0,7.0,74,0.00,,,0.03,,2013-12-10 11:53:00,
2013-12-10 07:12:00,20.0,13.0,30.09,WSW,246,4.0,8.0,75,0.00,,,0.03,,2013-12-10 12:12:00,
2013-12-10 07:22:00,20.0,13.0,30.09,WSW,243,3.0,8.0,75,0.00,,,0.03,,2013-12-10 12:22:00,
2013-12-10 07:42:00,20.0,13.0,30.09,SW,232,4.0,9.0,74,0.00,,,0.03,,2013-12-10 12:42:00,
2013-12-10 07:52:00,20.0,13.0,30.10,WSW,244,4.0,9.0,74,0.00,,,0.03,,2013-12-10 12:52:00,
2013-12-10 08:12:00,20.0,13.0,30.10,South,182,2.0,5.0,74,0.00,,,0.03,,2013-12-10 13:12:00,
2013-12-10 08:22:00,20.0,13.0,30.10,SW,226,4.0,9.0,74,0.00,,,0.03,,2013-12-10 13:22:00,
2013-12-10 08:42:00,20.0,14.0,30.10,WSW,243,1.0,7.0,76,0.00,,,0.03,,2013-12-10 13:42:00,
2013-12-10 08:52:00,20.0,14.0,30.10,WSW,253,4.0,8.0,77,0.00,,,0.03,,2013-12-10 13:52:00,
2013-12-10 09:22:00,20.0,13.0,30.10,SW,235,5.0,11.0,75,0.00,,,0.03,,2013-12-10 14:22:00,
2013-12-10 09:42:00,20.0,13.0,30.11,SW,232,4.0,9.0,73,0.00,,,0.03,,2013-12-10 14:42:00,
2013-12-10 09:52:00,20.0,13.0,30.11,SW,224,5.0,11.0,73,0.00,,,0.03,,2013-12-10 14:52:00,
2013-12-10 10:11:00,20.0,12.0,30.10,WSW,244,5.0,11.0,72,0.00,,,0.03,,2013-12-10 15:11:00,
2013-12-10 10:22:00,20.0,12.0,30.11,West,264,6.0,10.0,72,0.00,,,0.02,,2013-12-10 15:22:00,
2013-12-10 10:44:00,20.0,12.0,30.10,SW,221,6.0,13.0,71,0.00,,,0.02,,2013-12-10 15:44:00,
2013-12-10 10:53:00,20.0,12.0,30.11,WSW,250,5.0,11.0,70,0.00,,,0.02,,2013-12-10 15:53:00,
2013-12-10 11:23:00,21.0,10.0,30.10,SW,217,3.0,12.0,63,0.00,,,0.01,,2013-12-10 16:23:00,
2013-12-10 11:43:00,21.0,9.0,30.09,West,266,5.0,12.0,59,0.00,,,0.01,,2013-12-10 16:43:00,
2013-12-10 11:53:00,22.0,11.0,30.09,SSW,196,5.0,9.0,62,0.00,,,0.01,,2013-12-10 16:53:00,
2013-12-10 12:13:00,22.0,10.0,30.07,WSW,244,4.0,11.0,59,0.00,,,0.01,,2013-12-10 17:13:00,
2013-12-10 12:22:00,22.0,10.0,30.07,South,181,5.0,11.0,58,0.00,,,0.01,,2013-12-10 17:22:00,
2013-12-10 12:42:00,23.0,10.0,30.07,South,180,5.0,13.0,57,0.00,,,0.01,,2013-12-10 17:42:00,
2013-12-10 12:52:00,23.0,10.0,30.07,WSW,248,5.0,13.0,56,0.00,,,0.01,,2013-12-10 17:52:00,
2013-12-10 13:11:00,24.0,11.0,30.05,SSE,164,5.0,12.0,57,0.00,,,0.01,,2013-12-10 18:11:00,
2013-12-10 13:22:00,24.0,9.0,30.05,West,265,4.0,17.0,53,0.00,,,0.01,,2013-12-10 18:22:00,
2013-12-10 13:42:00,24.0,7.0,30.04,SW,230,8.0,17.0,48,0.00,,,0.01,,2013-12-10 18:42:00,
2013-12-10 13:53:00,25.0,8.0,30.02,South,178,7.0,15.0,48,0.00,,,0.01,,2013-12-10 18:53:00,
2013-12-10 14:11:00,25.0,9.0,30.02,SSW,204,4.0,14.0,49,0.00,,,0.01,,2013-12-10 19:11:00,
2013-12-10 14:22:00,26.0,9.0,30.01,NW,325,5.0,15.0,48,0.00,,,0.01,,2013-12-10 19:22:00,
2013-12-10 14:42:00,26.0,7.0,30.01,SW,225,6.0,15.0,43,0.00,,,0.01,,2013-12-10 19:42:00,
2013-12-10 14:52:00,26.0,8.0,30.00,South,191,5.0,16.0,45,0.00,,,0.01,,2013-12-10 19:52:00,
2013-12-10 15:11:00,26.0,6.0,30.01,SSE,159,7.0,18.0,42,0.00,,,0.01,,2013-12-10 20:11:00,
2013-12-10 15:22:00,26.0,8.0,30.01,SSE,159,7.0,18.0,45,0.00,,,0.00,,2013-12-10 20:22:00,
2013-12-10 15:42:00,26.0,7.0,30.01,WSW,249,7.0,18.0,44,0.00,,,0.00,,2013-12-10 20:42:00,
2013-12-10 15:53:00,26.0,7.0,30.01,SW,232,8.0,25.0,43,0.00,,,0.00,,2013-12-10 20:53:00,
2013-12-10 16:12:00,26.0,7.0,30.02,SW,216,8.0,20.0,43,0.00,,,0.00,,2013-12-10 21:12:00,
2013-12-10 16:22:00,26.0,8.0,30.03,WNW,289,8.0,19.0,46,0.00,,,0.00,,2013-12-10 21:22:00,
2013-12-10 16:43:00,25.0,9.0,30.05,SW,227,10.0,17.0,50,0.00,,,0.00,,2013-12-10 21:43:00,
2013-12-10 16:54:00,24.0,9.0,30.05,WSW,238,10.0,22.0,53,0.00,,,0.00,,2013-12-10 21:54:00,
2013-12-10 17:13:00,24.0,11.0,30.06,SE,143,8.0,20.0,56,0.00,,,0.00,,2013-12-10 22:13:00,
2013-12-10 17:23:00,24.0,11.0,30.07,WSW,252,9.0,17.0,58,0.00,,,0.00,,2013-12-10 22:23:00,
2013-12-10 17:43:00,24.0,12.0,30.08,SW,230,9.0,17.0,59,0.00,,,0.00,,2013-12-10 22:43:00,
2013-12-10 17:53:00,24.0,13.0,30.09,WSW,242,7.0,16.0,61,0.00,,,0.00,,2013-12-10 22:53:00,
2013-12-10 18:12:00,24.0,13.0,30.09,WSW,253,7.0,18.0,62,0.00,,,0.00,,2013-12-10 23:12:00,
2013-12-10 18:22:00,23.0,12.0,30.11,WSW,249,9.0,18.0,62,0.00,,,0.00,,2013-12-10 23:22:00,
2013-12-10 18:43:00,23.0,13.0,30.11,WSW,246,9.0,21.0,64,0.00,,,0.00,,2013-12-10 23:43:00,
2013-12-10 18:53:00,23.0,13.0,30.12,SSW,197,11.0,17.0,65,0.00,,,0.00,,2013-12-10 23:53:00,
2013-12-10 19:12:00,23.0,13.0,30.13,West,262,7.0,17.0,66,0.00,,,0.00,,2013-12-11 00:12:00,
2013-12-10 19:23:00,23.0,14.0,30.13,SW,214,5.0,17.0,67,0.00,,,0.00,,2013-12-11 00:23:00,
2013-12-10 19:42:00,23.0,14.0,30.14,WSW,246,8.0,13.0,69,0.00,,,0.00,,2013-12-11 00:42:00,
2013-12-10 19:52:00,23.0,14.0,30.14,SW,218,6.0,13.0,69,0.00,,,0.00,,2013-12-11 00:52:00,
2013-12-10 20:11:00,23.0,14.0,30.14,SW,232,7.0,19.0,69,0.00,,,0.00,,2013-12-11 01:11:00,
2013-12-10 20:22:00,23.0,14.0,30.15,WSW,246,8.0,15.0,69,0.00,,,0.00,,2013-12-11 01:22:00,
2013-12-10 20:42:00,23.0,14.0,30.16,WSW,241,10.0,18.0,69,0.00,,,0.00,,2013-12-11 01:42:00,
2013-12-10 20:52:00,23.0,14.0,30.18,SW,234,5.0,15.0,69,0.00,,,0.00,,2013-12-11 01:52:00,
2013-12-10 21:12:00,22.0,14.0,30.18,WSW,243,8.0,17.0,70,0.00,,,0.00,,2013-12-11 02:12:00,
2013-12-10 21:22:00,22.0,14.0,30.19,SW,215,8.0,17.0,71,0.00,,,0.00,,2013-12-11 02:22:00,
2013-12-10 21:42:00,22.0,14.0,30.19,WSW,238,6.0,15.0,72,0.00,,,0.00,,2013-12-11 02:42:00,
2013-12-10 21:52:00,22.0,14.0,30.19,SW,224,8.0,16.0,72,0.00,,,0.00,,2013-12-11 02:52:00,
2013-12-10 22:11:00,22.0,14.0,30.19,WSW,250,5.0,14.0,71,0.00,,,0.00,,2013-12-11 03:11:00,
2013-12-10 22:22:00,22.0,13.0,30.20,SW,220,7.0,14.0,69,0.00,,,0.00,,2013-12-11 03:22:00,
2013-12-10 22:43:00,22.0,13.0,30.20,WSW,244,6.0,13.0,69,0.00,,,0.00,,2013-12-11 03:43:00,
2013-12-10 22:54:00,22.0,13.0,30.20,SSW,199,7.0,18.0,68,0.00,,,0.00,,2013-12-11 03:54:00,
2013-12-10 23:13:00,21.0,12.0,30.22,West,272,7.0,12.0,69,0.00,,,0.00,,2013-12-11 04:13:00,
2013-12-10 23:23:00,21.0,12.0,30.22,SW,231,5.0,11.0,68,0.00,,,0.00,,2013-12-11 04:23:00,
2013-12-10 23:43:00,21.0,12.0,30.23,WSW,254,7.0,12.0,69,0.00,,,0.00,,2013-12-11 04:43:00,
2013-12-10 23:53:00,21.0,13.0,30.24,SW,235,6.0,11.0,70,0.00,,,0.00,,2013-12-11 04:53:00,